Time,TemperatureF,DewpointF,PressureIn,WindDirection,WindDirectionDegrees,WindSpeedMPH,WindSpeedGustMPH,Humidity,HourlyPrecipIn,Conditions,Clouds,dailyrainin,SoftwareType,DateUTC
2013-05-25 00:12:00,43.1,37.0,30.21,NW,310,4.0,-999.0,79,-99.99,,,0.00,weatherlink.com 1.10,2013-05-25 04:12:00,
2013-05-25 00:27:00,42.9,37.0,30.21,NW,306,7.0,-999.0,80,-99.99,,,0.00,weatherlink.com 1.10,2013-05-25 04:27:00,
2013-05-25 00:42:00,42.5,37.0,30.21,NW,323,5.0,-999.0,80,-99.99,,,0.00,weatherlink.com 1.10,2013-05-25 04:42:00,
2013-05-25 00:57:00,41.9,37.0,30.20,WNW,293,5.0,-999.0,81,-99.99,,,0.00,weatherlink.com 1.10,2013-05-25 04:57:00,
2013-05-25 01:12:00,41.5,36.0,30.20,WNW,292,3.0,-999.0,82,-99.99,,,0.00,weatherlink.com 1.10,2013-05-25 05:12:00,
2013-05-25 01:27:00,41.3,37.0,30.20,NW,313,7.0,-999.0,83,-99.99,,,0.00,weatherlink.com 1.10,2013-05-25 05:27:00,
2013-05-25 01:42:00,40.9,36.0,30.20,WNW,295,6.0,-999.0,84,-99.99,,,0.00,weatherlink.com 1.10,2013-05-25 05:42:00,
2013-05-25 01:57:00,40.6,37.0,30.20,West,280,7.0,-999.0,85,-99.99,,,0.00,weatherlink.com 1.10,2013-05-25 05:57:00,
2013-05-25 02:12:00,40.7,37.0,30.20,WNW,288,8.0,-999.0,85,-99.99,,,0.00,weatherlink.com 1.10,2013-05-25 06:12:00,
2013-05-25 02:27:00,40.6,37.0,30.20,WNW,286,0.0,-999.0,85,-99.99,,,0.00,weatherlink.com 1.10,2013-05-25 06:27:00,
2013-05-25 02:42:00,40.2,36.0,30.20,WNW,288,8.0,-999.0,86,-99.99,,,0.00,weatherlink.com 1.10,2013-05-25 06:42:00,
2013-05-25 02:57:00,39.8,36.0,30.20,WNW,296,5.0,-999.0,86,-99.99,,,0.00,weatherlink.com 1.10,2013-05-25 06:57:00,
2013-05-25 03:12:00,39.7,36.0,30.20,WNW,300,5.0,-999.0,86,-99.99,,,0.00,weatherlink.com 1.10,2013-05-25 07:12:00,
2013-05-25 03:27:00,39.6,36.0,30.20,WNW,292,5.0,-999.0,87,-99.99,,,0.00,weatherlink.com 1.10,2013-05-25 07:27:00,
2013-05-25 03:42:00,39.4,36.0,30.21,WNW,296,6.0,-999.0,87,-99.99,,,0.00,weatherlink.com 1.10,2013-05-25 07:42:00,
2013-05-25 03:57:00,39.4,36.0,30.21,WNW,284,7.0,-999.0,87,-99.99,,,0.00,weatherlink.com 1.10,2013-05-25 07:57:00,
2013-05-25 04:12:00,39.3,36.0,30.21,WNW,286,4.0,-999.0,87,-99.99,,,0.00,weatherlink.com 1.10,2013-05-25 08:12:00,
2013-05-25 04:27:00,39.1,36.0,30.21,WNW,292,6.0,-999.0,87,-99.99,,,0.00,weatherlink.com 1.10,2013-05-25 08:27:00,
2013-05-25 04:42:00,39.0,36.0,30.21,WNW,292,4.0,-999.0,87,-99.99,,,0.00,weatherlink.com 1.10,2013-05-25 08:42:00,
2013-05-25 04:57:00,38.8,36.0,30.20,WNW,294,5.0,-999.0,88,-99.99,,,0.00,weatherlink.com 1.10,2013-05-25 08:57:00,
2013-05-25 05:12:00,38.5,35.0,30.20,WNW,295,9.0,-999.0,88,-99.99,,,0.00,weatherlink.com 1.10,2013-05-25 09:12:00,
2013-05-25 05:27:00,38.5,35.0,30.20,WNW,300,8.0,-999.0,88,-99.99,,,0.00,weatherlink.com 1.10,2013-05-25 09:27:00,
2013-05-25 05:42:00,38.5,35.0,30.20,WNW,288,7.0,-999.0,88,-99.99,,,0.00,weatherlink.com 1.10,2013-05-25 09:42:00,
2013-05-25 05:57:00,38.4,35.0,30.20,WNW,291,8.0,-999.0,88,-99.99,,,0.00,weatherlink.com 1.10,2013-05-25 09:57:00,
2013-05-25 06:12:00,38.6,35.0,30.20,WNW,292,8.0,-999.0,88,-99.99,,,0.00,weatherlink.com 1.10,2013-05-25 10:12:00,
2013-05-25 06:27:00,38.9,36.0,30.21,WNW,300,8.0,-999.0,88,-99.99,,,0.00,weatherlink.com 1.10,2013-05-25 10:27:00,
2013-05-25 06:42:00,39.5,36.0,30.22,NW,304,5.0,-999.0,88,-99.99,,,0.00,weatherlink.com 1.10,2013-05-25 10:42:00,
2013-05-25 06:57:00,40.0,37.0,30.22,WNW,291,0.0,-999.0,88,-99.99,,,0.00,weatherlink.com 1.10,2013-05-25 10:57:00,
2013-05-25 07:12:00,40.6,37.0,30.22,NW,306,5.0,-999.0,87,-99.99,,,0.00,weatherlink.com 1.10,2013-05-25 11:12:00,
2013-05-25 07:27:00,41.3,38.0,30.22,WNW,287,8.0,-999.0,87,-99.99,,,0.00,weatherlink.com 1.10,2013-05-25 11:27:00,
2013-05-25 07:42:00,42.1,38.0,30.22,NW,326,8.0,-999.0,86,-99.99,,,0.00,weatherlink.com 1.10,2013-05-25 11:42:00,
2013-05-25 07:58:00,42.9,38.0,30.23,NNW,334,9.0,-999.0,84,-99.99,,,0.00,weatherlink.com 1.10,2013-05-25 11:58:00,
2013-05-25 08:13:00,43.9,39.0,30.23,NNW,327,4.0,-999.0,83,-99.99,,,0.00,weatherlink.com 1.10,2013-05-25 12:13:00,
2013-05-25 08:28:00,44.6,39.0,30.23,NNW,331,8.0,-999.0,80,-99.99,,,0.00,weatherlink.com 1.10,2013-05-25 12:28:00,
2013-05-25 08:43:00,45.6,39.0,30.23,NW,304,9.0,-999.0,77,-99.99,,,0.00,weatherlink.com 1.10,2013-05-25 12:43:00,
2013-05-25 08:58:00,46.2,38.0,30.23,NNE,15,6.0,-999.0,72,-99.99,,,0.00,weatherlink.com 1.10,2013-05-25 12:58:00,
2013-05-25 09:13:00,46.7,36.0,30.22,North,355,7.0,-999.0,67,-99.99,,,0.00,weatherlink.com 1.10,2013-05-25 13:13:00,
2013-05-25 09:28:00,47.4,36.0,30.23,North,360,6.0,-999.0,65,-99.99,,,0.00,weatherlink.com 1.10,2013-05-25 13:28:00,
2013-05-25 09:43:00,47.6,35.0,30.23,NW,307,9.0,-999.0,63,-99.99,,,0.00,weatherlink.com 1.10,2013-05-25 13:43:00,
2013-05-25 09:58:00,48.1,35.0,30.22,North,350,5.0,-999.0,62,-99.99,,,0.00,weatherlink.com 1.10,2013-05-25 13:58:00,
2013-05-25 10:13:00,48.7,37.0,30.22,NNW,331,7.0,-999.0,65,-99.99,,,0.00,weatherlink.com 1.10,2013-05-25 14:13:00,
2013-05-25 10:28:00,48.8,36.0,30.22,NNW,340,12.0,-999.0,61,-99.99,,,0.00,weatherlink.com 1.10,2013-05-25 14:28:00,
2013-05-25 10:43:00,49.2,35.0,30.22,NNW,338,12.0,-999.0,59,-99.99,,,0.00,weatherlink.com 1.10,2013-05-25 14:43:00,
2013-05-25 10:58:00,49.8,35.0,30.22,NW,326,9.0,-999.0,58,-99.99,,,0.00,weatherlink.com 1.10,2013-05-25 14:58:00,
2013-05-25 11:13:00,49.7,36.0,30.23,NW,321,7.0,-999.0,60,-99.99,,,0.00,weatherlink.com 1.10,2013-05-25 15:13:00,
2013-05-25 11:28:00,50.2,35.0,30.23,NNW,348,10.0,-999.0,57,-99.99,,,0.00,weatherlink.com 1.10,2013-05-25 15:28:00,
2013-05-25 11:43:00,49.9,35.0,30.23,NW,325,11.0,-999.0,58,-99.99,,,0.00,weatherlink.com 1.10,2013-05-25 15:43:00,
2013-05-25 11:58:00,50.8,37.0,30.23,NNW,340,12.0,-999.0,59,-99.99,,,0.00,weatherlink.com 1.10,2013-05-25 15:58:00,
2013-05-25 12:13:00,50.8,37.0,30.24,NNW,329,7.0,-999.0,59,-99.99,,,0.00,weatherlink.com 1.10,2013-05-25 16:13:00,
2013-05-25 12:28:00,51.5,37.0,30.23,NNW,338,7.0,-999.0,58,-99.99,,,0.00,weatherlink.com 1.10,2013-05-25 16:28:00,
2013-05-25 12:43:00,50.7,36.0,30.23,NW,321,10.0,-999.0,58,-99.99,,,0.00,weatherlink.com 1.10,2013-05-25 16:43:00,
2013-05-25 12:58:00,51.0,37.0,30.23,NW,323,10.0,-999.0,60,-99.99,,,0.00,weatherlink.com 1.10,2013-05-25 16:58:00,
2013-05-25 13:13:00,52.3,37.0,30.22,NW,325,13.0,-999.0,56,-99.99,,,0.00,weatherlink.com 1.10,2013-05-25 17:13:00,
2013-05-25 13:28:00,52.3,36.0,30.21,NNW,330,11.0,-999.0,54,-99.99,,,0.00,weatherlink.com 1.10,2013-05-25 17:28:00,
2013-05-25 13:43:00,51.7,38.0,30.21,WNW,296,11.0,-999.0,60,-99.99,,,0.00,weatherlink.com 1.10,2013-05-25 17:43:00,
2013-05-25 13:58:00,53.2,36.0,30.21,NNW,336,14.0,-999.0,53,-99.99,,,0.00,weatherlink.com 1.10,2013-05-25 17:58:00,
2013-05-25 14:13:00,53.8,37.0,30.20,North,5,11.0,-999.0,53,-99.99,,,0.00,weatherlink.com 1.10,2013-05-25 18:13:00,
2013-05-25 14:28:00,53.2,38.0,30.20,NW,323,9.0,-999.0,57,-99.99,,,0.00,weatherlink.com 1.10,2013-05-25 18:28:00,
2013-05-25 14:43:00,53.9,38.0,30.20,WNW,290,16.0,-999.0,56,-99.99,,,0.00,weatherlink.com 1.10,2013-05-25 18:43:00,
2013-05-25 14:58:00,54.1,37.0,30.19,NW,317,11.0,-999.0,53,-99.99,,,0.00,weatherlink.com 1.10,2013-05-25 18:58:00,
2013-05-25 15:13:00,54.8,37.0,30.19,NW,315,14.0,-999.0,51,-99.99,,,0.00,weatherlink.com 1.10,2013-05-25 19:13:00,
2013-05-25 15:28:00,54.8,37.0,30.18,North,355,10.0,-999.0,51,-99.99,,,0.00,weatherlink.com 1.10,2013-05-25 19:28:00,
2013-05-25 15:43:00,55.3,37.0,30.18,NW,310,10.0,-999.0,51,-99.99,,,0.00,weatherlink.com 1.10,2013-05-25 19:43:00,
2013-05-25 15:58:00,54.8,36.0,30.18,NW,317,8.0,-999.0,50,-99.99,,,0.00,weatherlink.com 1.10,2013-05-25 19:58:00,
2013-05-25 16:13:00,55.7,37.0,30.18,WNW,295,10.0,-999.0,49,-99.99,,,0.00,weatherlink.com 1.10,2013-05-25 20:13:00,
2013-05-25 16:29:00,56.3,37.0,30.17,NNW,331,15.0,-999.0,48,-99.99,,,0.00,weatherlink.com 1.10,2013-05-25 20:29:00,
2013-05-25 16:44:00,55.9,37.0,30.16,WNW,303,8.0,-999.0,50,-99.99,,,0.00,weatherlink.com 1.10,2013-05-25 20:44:00,
2013-05-25 16:59:00,56.5,38.0,30.16,WNW,296,15.0,-999.0,50,-99.99,,,0.00,weatherlink.com 1.10,2013-05-25 20:59:00,
2013-05-25 17:14:00,56.0,37.0,30.16,NNW,348,11.0,-999.0,49,-99.99,,,0.00,weatherlink.com 1.10,2013-05-25 21:14:00,
2013-05-25 17:29:00,56.0,36.0,30.16,NNW,329,12.0,-999.0,48,-99.99,,,0.00,weatherlink.com 1.10,2013-05-25 21:29:00,
2013-05-25 17:44:00,56.4,37.0,30.16,WNW,302,10.0,-999.0,49,-99.99,,,0.00,weatherlink.com 1.10,2013-05-25 21:44:00,
2013-05-25 17:59:00,56.4,38.0,30.16,WNW,301,16.0,-999.0,50,-99.99,,,0.00,weatherlink.com 1.10,2013-05-25 21:59:00,
2013-05-25 18:14:00,55.9,37.0,30.15,WNW,302,11.0,-999.0,49,-99.99,,,0.00,weatherlink.com 1.10,2013-05-25 22:14:00,
2013-05-25 18:29:00,56.0,37.0,30.15,West,279,16.0,-999.0,50,-99.99,,,0.00,weatherlink.com 1.10,2013-05-25 22:29:00,
2013-05-25 18:44:00,55.6,38.0,30.16,West,277,10.0,-999.0,52,-99.99,,,0.00,weatherlink.com 1.10,2013-05-25 22:44:00,
2013-05-25 18:59:00,55.1,38.0,30.16,NW,307,15.0,-999.0,53,-99.99,,,0.00,weatherlink.com 1.10,2013-05-25 22:59:00,
2013-05-25 19:14:00,54.3,38.0,30.17,WNW,301,13.0,-999.0,55,-99.99,,,0.00,weatherlink.com 1.10,2013-05-25 23:14:00,
2013-05-25 19:29:00,53.6,39.0,30.17,WNW,288,3.0,-999.0,58,-99.99,,,0.00,weatherlink.com 1.10,2013-05-25 23:29:00,
2013-05-25 19:44:00,53.0,39.0,30.16,NW,325,11.0,-999.0,59,-99.99,,,0.00,weatherlink.com 1.10,2013-05-25 23:44:00,
2013-05-25 19:59:00,52.5,39.0,30.17,NW,311,8.0,-999.0,60,-99.99,,,0.00,weatherlink.com 1.10,2013-05-25 23:59:00,
2013-05-25 20:14:00,51.7,38.0,30.16,WNW,302,8.0,-999.0,61,-99.99,,,0.00,weatherlink.com 1.10,2013-05-26 00:14:00,
2013-05-25 20:29:00,50.8,39.0,30.17,WNW,295,7.0,-999.0,64,-99.99,,,0.00,weatherlink.com 1.10,2013-05-26 00:29:00,
2013-05-25 20:44:00,50.0,38.0,30.16,West,277,10.0,-999.0,64,-99.99,,,0.00,weatherlink.com 1.10,2013-05-26 00:44:00,
2013-05-25 20:59:00,49.4,38.0,30.16,West,274,9.0,-999.0,64,-99.99,,,0.00,weatherlink.com 1.10,2013-05-26 00:59:00,
2013-05-25 21:14:00,49.1,37.0,30.16,WNW,288,9.0,-999.0,63,-99.99,,,0.00,weatherlink.com 1.10,2013-05-26 01:14:00,
2013-05-25 21:29:00,48.3,37.0,30.16,WNW,297,9.0,-999.0,65,-99.99,,,0.00,weatherlink.com 1.10,2013-05-26 01:29:00,
2013-05-25 21:44:00,47.9,37.0,30.16,WNW,297,7.0,-999.0,66,-99.99,,,0.00,weatherlink.com 1.10,2013-05-26 01:44:00,
2013-05-25 21:59:00,47.4,37.0,30.17,WNW,290,6.0,-999.0,68,-99.99,,,0.00,weatherlink.com 1.10,2013-05-26 01:59:00,
2013-05-25 22:14:00,46.8,37.0,30.17,NW,306,3.0,-999.0,70,-99.99,,,0.00,weatherlink.com 1.10,2013-05-26 02:14:00,
2013-05-25 22:29:00,46.5,38.0,30.17,WNW,291,6.0,-999.0,71,-99.99,,,0.00,weatherlink.com 1.10,2013-05-26 02:29:00,
2013-05-25 22:44:00,46.3,37.0,30.17,West,281,10.0,-999.0,71,-99.99,,,0.00,weatherlink.com 1.10,2013-05-26 02:44:00,
2013-05-25 22:59:00,45.7,37.0,30.17,NW,306,8.0,-999.0,73,-99.99,,,0.00,weatherlink.com 1.10,2013-05-26 02:59:00,
2013-05-25 23:14:00,45.6,37.0,30.17,NW,304,6.0,-999.0,72,-99.99,,,0.00,weatherlink.com 1.10,2013-05-26 03:14:00,
2013-05-25 23:29:00,45.4,37.0,30.17,WNW,289,4.0,-999.0,73,-99.99,,,0.00,weatherlink.com 1.10,2013-05-26 03:29:00,
2013-05-25 23:44:00,45.0,37.0,30.17,WNW,294,7.0,-999.0,73,-99.99,,,0.00,weatherlink.com 1.10,2013-05-26 03:44:00,
2013-05-25 23:59:00,45.0,37.0,30.17,WNW,302,7.0,-999.0,73,-99.99,,,0.00,weatherlink.com 1.10,2013-05-26 03:59:00,